Flag for Austria Weather past 2 weeks in Leoben, Styria, Austria

Now
57 °F

Light rain. Broken clouds.


Feels Like: 57 °F
Forecast: 53 / 59 °F
Wind: 3 mph from Southeast

Location: Zeltweg

Current Time: Jul 29, 2015 at 9:31:09 AM

Latest Report: Jul 29, 2015 at 8:50 AM


Visibility: 5 mi

Pressure: 29.95 "Hg (28.09 "Hg at 540m altitude)

Humidity: 88%

Dew point: 54 °F

Location of LeobenLocation

Historic Weather in Leoben — Graph

°F

Leoben temperature yesterday

Maximum temperature yesterday: 64 °F (at 11:50 AM)
Minimum temperature yesterday: 57 °F (at 4:50 AM)
Average temperature yesterday: 62 °F

Past Weeks' High & Low Weather Summary

 TemperatureHumidityPressure
High91 °F (Jul 17, 4:20 PM)100% (Jul 14, 8:20 AM)30.21 "Hg (Jul 14, 8:20 AM)
Low55 °F (Jul 15, 4:50 AM)31% (Jul 17, 3:50 PM)29.80 "Hg (Jul 27, 5:50 AM)
Average71 °F71%30.02 "Hg
* Reported Jul 14 8:20 AM — Jul 29 8:20 AM, Leoben, Weather by CustomWeather, © 2015

Note: Actual official high and low records may vary slightly from our data, if they occured in-between our weather recording intervals... More about our weather records

Advertising

Leoben weather history for previous 24 hours

 ConditionsComfort  
Time TempWeatherWind HumidityBarometerVisibility
8:20 AM
Wed, Jul 29
55 °FRain. More clouds than sun.1 mph94%29.95 "Hg4 mi
7:50 AM57 °FRain. Fog.5 mph94%29.92 "Hg3 mi
7:20 AM55 °FLight rain. More clouds than sun.2 mph100%29.92 "Hg4 mi
6:50 AM55 °FLight rain. Fog.2 mph100%29.92 "Hg3 mi
5:50 AM57 °FLight rain. Fog.6 mph94%29.92 "Hg3 mi
4:50 AM57 °FLight rain. Mostly cloudy.3 mph94%29.89 "Hg5 mi
10:50 PM
Tue, Jul 28
61 °FLow clouds.1 mph94%29.89 "Hg9 mi
9:50 PM61 °FOvercast.1 mph94%29.89 "Hg9 mi
8:50 PM61 °FOvercast.3 mph94%29.86 "Hg12 mi
7:50 PM63 °FLight rain. Overcast.6 mph88%29.86 "Hg12 mi
7:20 PM63 °FOvercast.7 mph83%29.86 "Hg12 mi
6:50 PM64 °FOvercast.6 mph73%29.86 "Hg12 mi
6:20 PM64 °FOvercast.5 mph73%29.83 "Hg12 mi
5:20 PM64 °FOvercast.6 mph73%29.86 "Hg12 mi
4:50 PM64 °FOvercast.7 mph73%29.86 "Hg12 mi
4:20 PM64 °FOvercast.6 mph73%29.86 "Hg12 mi
3:50 PM64 °FOvercast.7 mph73%29.86 "Hg12 mi
3:20 PM64 °FOvercast.6 mph73%29.89 "Hg12 mi
2:50 PM64 °FBroken clouds.6 mph73%29.89 "Hg12 mi
2:20 PM64 °FBroken clouds.7 mph68%29.89 "Hg12 mi
1:50 PM64 °FBroken clouds.6 mph73%29.89 "Hg12 mi
1:20 PM63 °FBroken clouds.5 mph83%29.89 "Hg12 mi
12:50 PM63 °FBroken clouds.6 mph83%29.89 "Hg12 mi
12:20 PM64 °FBroken clouds.6 mph78%29.89 "Hg12 mi
11:50 AM64 °FBroken clouds.5 mph73%29.89 "Hg12 mi
11:20 AM63 °FBroken clouds.5 mph77%29.89 "Hg12 mi
10:50 AM63 °FBroken clouds.5 mph77%29.89 "Hg12 mi
10:20 AM61 °FBroken clouds.2 mph83%29.92 "Hg12 mi
9:50 AM61 °FBroken clouds.2 mph94%29.92 "Hg12 mi
9:20 AM59 °FBroken clouds.3 mph88%29.92 "Hg12 mi
Weather by CustomWeather, © 2015

See weather overviewHow to use our weather pages